[[{"header":{"parameterUnit":"m.s-1","parameterCategory":1,"la1":30.2991,"la2":30.254,"lo1":-89.0895,"lo2":-89.0444,"dy":0.0017,"dx":0.0017,"nx":28,"ny":28,"refTime":"2023-11-21T03:00:00:Z","depth":0,"parameterNumber":2,"parameterNumberName":"U-component_of_WINDS"},"data":[0,0,0,0,0,0,0,0,0,0,0,0,0,0,0,0,0,0,0,0,0,0,0,0,0,0,0,0,0,0,0,0,0,0,0,0,0,0,0,0,0,0,0,0,0,0,0,0,0,0,0,0,0,0,0,0,0,0,2.5116,2.5115,0,2.5078,2.5078,2.5077,2.5032,2.5032,2.5031,2.503,2.499,2.4989,2.4989,0,0,0,0,0,0,0,0,0,0,0,0,0,2.5148,2.5148,2.5116,2.5115,2.5115,2.5078,2.5078,2.5077,2.5032,2.5032,2.5031,2.503,2.499,2.4989,2.4989,0,0,0,0,0,0,0,0,0,0,0,0,0,2.5124,2.5147,2.5116,2.5088,2.5085,2.5078,2.5078,2.5077,2.5033,2.5032,2.5031,2.503,2.499,2.4989,2.4989,2.5005,0,0,2.4987,2.4986,0,0,0,0,0,0,0,0,2.5126,2.5123,2.5093,2.509,2.5087,2.5059,2.5074,2.5053,2.5033,2.5053,2.503,2.5029,2.5013,2.5011,2.5006,2.5003,2.5002,2.4987,2.4986,2.4986,2.4986,0,0,0,0,0,0,0,2.5128,2.5125,2.5101,2.5092,2.5089,2.5077,2.5073,2.507,2.5039,2.5051,2.5047,2.5044,2.5012,2.5007,2.5005,2.5001,2.4987,2.4986,2.4986,2.4985,2.5011,2.5012,0,0,0,0,0,0,2.5134,2.5126,2.5102,2.51,2.5104,2.5078,2.5073,2.5069,2.5039,2.5034,2.5045,2.5042,2.5008,2.5005,2.5003,2.5021,2.4986,2.4985,2.4985,2.501,2.5012,2.5013,0,0,0,0,0,0,2.5134,2.5132,2.5104,2.5112,2.5108,2.5078,2.5074,2.5069,2.5064,2.5035,2.5029,2.5045,2.5007,2.5004,2.5005,2.5019,2.4985,2.4984,2.5009,2.5011,2.5012,2.5057,0,0,0,0,0,0,2.5136,2.5132,2.5138,2.5113,2.5107,2.5107,2.5075,2.5069,2.5063,2.5059,2.5034,2.5028,2.5006,2.5007,2.5005,2.5017,2.4984,2.5008,2.501,2.5012,2.5054,2.506,2.5065,0,0,0,0,0,2.5137,2.5152,2.5139,2.5136,2.5115,2.5108,2.5105,2.508,2.5064,2.507,2.5052,2.5029,2.5018,2.5007,2.5005,2.5017,2.5007,2.5009,2.5011,2.5051,2.5058,2.5064,0,0,0,0,0,0,2.5179,2.5148,2.5133,2.514,2.5127,2.51,2.5107,2.5088,2.5078,2.5075,2.5043,2.5038,2.5043,2.503,2.5019,2.5032,2.5009,2.5011,2.504,2.5047,2.5052,2.5055,2.4983,0,0,0,0,0,2.5189,2.5187,2.516,2.5169,2.5163,2.5136,2.5132,2.5115,2.5099,2.5093,2.5074,2.506,2.5053,2.5049,2.5042,2.5052,2.5046,2.506,2.5065,2.507,2.5071,2.5077,2.5083,2.5021,2.5021,2.5021,0,0,2.521,2.5193,2.5193,2.5177,2.5164,2.5162,2.5132,2.5131,2.5129,2.5093,2.5093,2.5079,2.5061,2.5068,2.507,2.5057,2.5088,2.5073,2.5077,2.5076,2.508,2.5086,2.5091,2.5022,2.5022,2.5022,0,0,2.5247,2.5234,2.524,2.5229,2.5211,2.5193,2.5195,2.5171,2.5161,2.5162,2.5135,2.5132,2.5121,2.5109,2.5102,2.5137,2.5116,2.5135,2.5163,2.5168,2.5173,2.5177,2.519,2.5195,2.5137,2.5138,2.5138,0,2.5275,2.5271,2.5245,2.5247,2.524,2.5209,2.5215,2.5205,2.5186,2.5182,2.5169,2.5155,2.5141,2.5144,2.5153,2.5148,2.5149,2.5137,2.5175,2.5179,2.5182,2.5194,2.5198,2.514,2.514,2.5139,2.5139,0,2.5306,2.5304,2.5312,2.5295,2.5289,2.5293,2.5268,2.5266,2.5249,2.5233,2.5234,2.5216,2.5204,2.5204,2.5187,2.5206,2.5198,2.5181,2.5156,2.5191,2.5201,2.5205,2.5143,2.5143,2.5142,2.5141,0,0,2.5367,2.5337,2.534,2.5332,2.5311,2.5309,2.5312,2.5302,2.53,2.5288,2.529,2.5282,2.5266,2.5258,2.5239,2.5244,2.5273,2.5225,2.5225,2.5235,2.5293,2.5306,2.5312,2.526,2.5261,2.5261,2.5294,0,2.54,2.5403,2.5381,2.5389,2.5387,2.5359,2.5361,2.5348,2.5334,2.533,2.5314,2.5309,2.5288,2.5283,2.5287,2.5269,2.5284,2.5266,2.526,2.526,2.5265,2.5317,2.5331,2.5363,2.5298,2.5299,2.5299,0,2.5438,2.5429,2.5438,2.5418,2.5416,2.5419,2.5408,2.5405,2.539,2.5379,2.5371,2.5351,2.5352,2.533,2.5331,2.532,2.5316,2.5307,2.5308,2.5306,2.5281,2.5316,2.5372,2.5377,2.5306,2.5305,2.5305,0,2.5481,2.5472,2.5476,2.547,2.5447,2.5449,2.5439,2.5424,2.5419,2.541,2.5407,2.5398,2.5393,2.5386,2.5364,2.535,2.5368,2.5344,2.5358,2.5359,2.5362,2.5362,2.5419,2.5361,2.5361,2.5361,2.5361,0,2.5519,2.5526,2.5495,2.5498,2.5505,2.548,2.5487,2.5474,2.5461,2.5461,2.5435,2.5435,2.5406,2.5403,2.5386,2.5389,2.5387,2.5378,2.5373,2.538,2.5381,2.5377,2.5374,2.5362,2.5362,2.5362,2.5362,0,2.5568,2.5548,2.5551,2.5529,2.5524,2.553,2.5511,2.5512,2.5497,2.5497,2.5495,2.5471,2.5466,2.5444,2.5433,2.5422,2.5431,2.5422,2.5437,2.5433,2.5449,2.5448,2.5504,2.551,2.545,2.545,2.5451,0,2.5594,2.5598,2.5577,2.5576,2.5567,2.5565,2.5561,2.5537,2.5533,2.5518,2.5521,2.5515,2.5508,2.5502,2.5483,2.5475,2.5466,2.5486,2.5464,2.5471,2.5466,2.5465,2.5466,2.549,2.5491,2.5492,2.5492,0,2.5641,2.5631,2.5626,2.5619,2.5615,2.5607,2.5598,2.5598,2.5571,2.5569,2.5564,2.556,2.555,2.5544,2.5533,2.5522,2.5503,2.55,2.5502,2.5509,2.5517,2.5513,2.5449,2.5498,2.5497,2.5497,2.5497,2.5496,2.5679,2.5682,2.5668,2.5664,2.5655,2.5647,2.5648,2.5633,2.5629,2.562,2.5606,2.5604,2.559,2.5574,2.5565,2.5563,2.5551,2.5556,2.5557,2.5558,2.5561,2.5518,2.5561,2.556,2.556,2.556,2.556,0,2.5725,2.5715,2.5711,2.57,2.5697,2.568,2.567,2.5668,2.5666,2.5656,2.565,2.5645,2.564,2.5621,2.5614,2.5615,2.5606,2.5614,2.5613,2.5611,2.5572,2.557,2.5622,2.5622,2.5622,2.5622,2.5622,2.5622,2.5748,2.5753,2.5741,2.5742,2.5731,2.5729,2.5725,2.5718,2.5709,2.5705,2.5701,2.5689,2.5675,2.5667,2.5661,2.5656,2.5654,2.5665,2.5657,2.562,2.5614,2.5608,2.5606,2.5665,2.5665,2.5696,2.5697,2.5697]},{"header":{"parameterUnit":"m.s-1","parameterCategory":1,"la1":30.2991,"la2":30.254,"lo1":-89.0895,"lo2":-89.0444,"dy":0.0017,"dx":0.0017,"nx":28,"ny":28,"refTime":"2023-11-21T03:00:00:Z","depth":0,"parameterNumber":3,"parameterNumberName":"V-component_of_WINDS"},"data":[0,0,0,0,0,0,0,0,0,0,0,0,0,0,0,0,0,0,0,0,0,0,0,0,0,0,0,0,0,0,0,0,0,0,0,0,0,0,0,0,0,0,0,0,0,0,0,0,0,0,0,0,0,0,0,0,0,0,-5.939,-5.9391,0,-5.9495,-5.9496,-5.9497,-5.9467,-5.9465,-5.9463,-5.9461,-5.9564,-5.9568,-5.9573,0,0,0,0,0,0,0,0,0,0,0,0,0,-5.9162,-5.9167,-5.939,-5.9391,-5.9393,-5.9494,-5.9496,-5.9497,-5.9468,-5.9465,-5.9463,-5.946,-5.9562,-5.9568,-5.9573,0,0,0,0,0,0,0,0,0,0,0,0,0,-5.9263,-5.9168,-5.939,-5.939,-5.9391,-5.9494,-5.9496,-5.9498,-5.9468,-5.9465,-5.9462,-5.9459,-5.956,-5.9567,-5.9574,-5.9681,0,0,-5.9596,-5.9599,0,0,0,0,0,0,0,0,-5.9258,-5.9272,-5.9389,-5.939,-5.9392,-5.9465,-5.9453,-5.9559,-5.9469,-5.9439,-5.9461,-5.9457,-5.9533,-5.9542,-5.9569,-5.9686,-5.969,-5.9596,-5.9601,-5.9604,-5.9606,0,0,0,0,0,0,0,-5.9251,-5.9267,-5.9431,-5.9391,-5.9392,-5.9384,-5.9395,-5.9473,-5.9502,-5.9441,-5.944,-5.9453,-5.9533,-5.9562,-5.9571,-5.9692,-5.9596,-5.9602,-5.9607,-5.9609,-5.9905,-5.9908,0,0,0,0,0,0,-5.9243,-5.9261,-5.9428,-5.9434,-5.9316,-5.9391,-5.9403,-5.9445,-5.9502,-5.9507,-5.9455,-5.9451,-5.9551,-5.9563,-5.9574,-5.9705,-5.9604,-5.961,-5.9614,-5.9901,-5.9906,-5.991,0,0,0,0,0,0,-5.9238,-5.9258,-5.9424,-5.9348,-5.9368,-5.9399,-5.9445,-5.9448,-5.9477,-5.9512,-5.9517,-5.9479,-5.9549,-5.9564,-5.9656,-5.9708,-5.9613,-5.962,-5.9897,-5.9903,-5.9908,-5.9967,0,0,0,0,0,0,-5.9232,-5.9257,-5.9298,-5.9349,-5.9372,-5.9504,-5.9448,-5.9453,-5.949,-5.9485,-5.9536,-5.9541,-5.9548,-5.9645,-5.9663,-5.9716,-5.9625,-5.9893,-5.99,-5.9906,-5.9961,-5.9974,-5.9985,0,0,0,0,0,-5.9224,-5.9309,-5.93,-5.9321,-5.9425,-5.9507,-5.9521,-5.9528,-5.9494,-5.9536,-5.9559,-5.954,-5.97,-5.9655,-5.9674,-5.9731,-5.9889,-5.9898,-5.9906,-5.9955,-5.9971,-5.9985,0,0,0,0,0,0,-5.9261,-5.9316,-5.9306,-5.9411,-5.9455,-5.9502,-5.9555,-5.9545,-5.9598,-5.9591,-5.9597,-5.9609,-5.9703,-5.9726,-5.9675,-5.9839,-5.9789,-5.9802,-5.982,-5.9836,-5.9848,-5.9841,-5.9631,0,0,0,0,0,-5.9282,-5.9346,-5.9389,-5.9477,-5.95,-5.9524,-5.956,-5.9563,-5.9608,-5.9626,-5.9655,-5.9699,-5.9759,-5.9799,-5.9856,-5.9964,-5.9975,-6.0012,-6.0025,-6.0035,-6.0045,-6.0106,-6.0123,-5.9936,-5.9936,-5.9936,0,0,-5.9325,-5.9363,-5.9402,-5.9486,-5.952,-5.9586,-5.954,-5.961,-5.9659,-5.9636,-5.9725,-5.9749,-5.9798,-5.9899,-5.9944,-5.992,-6.01,-6.0045,-6.0053,-6.0058,-6.0116,-6.0134,-6.015,-5.9942,-5.9941,-5.994,0,0,-5.9437,-5.9472,-5.955,-5.9586,-5.964,-5.9656,-5.9675,-5.9725,-5.974,-5.983,-5.9815,-5.9872,-5.9976,-6.0012,-6.0044,-6.0173,-6.0158,-6.0192,-6.0256,-6.0315,-6.033,-6.0343,-6.0391,-6.0407,-6.0202,-6.0202,-6.0202,0,-5.9483,-5.9583,-5.9591,-5.9664,-5.9702,-5.9687,-5.9766,-5.98,-5.9869,-5.9896,-5.9868,-6.0,-6.0032,-6.0142,-6.0174,-6.02,-6.0222,-6.0186,-6.0327,-6.0341,-6.0353,-6.0398,-6.0416,-6.0206,-6.0206,-6.0205,-6.0205,0,-5.9638,-5.9707,-5.9763,-5.9834,-5.9877,-5.9953,-5.9973,-6.0016,-6.0015,-6.0034,-6.0126,-6.0165,-6.0231,-6.0257,-6.0255,-6.0367,-6.0351,-6.0326,-6.0276,-6.0375,-6.0417,-6.0435,-6.0212,-6.021,-6.0209,-6.0208,0,0,-5.9775,-5.9851,-5.9872,-5.9904,-5.9964,-6.0017,-6.0093,-6.0159,-6.0197,-6.0245,-6.0309,-6.0399,-6.0377,-6.0413,-6.0416,-6.0468,-6.057,-6.0436,-6.0437,-6.0461,-6.0698,-6.0717,-6.0737,-6.056,-6.0563,-6.0566,-6.0694,0,-5.9893,-6.0028,-6.0039,-6.016,-6.0225,-6.0212,-6.0278,-6.0322,-6.0342,-6.0399,-6.042,-6.0484,-6.0449,-6.0472,-6.0522,-6.0547,-6.0617,-6.0537,-6.0619,-6.0622,-6.0609,-6.0759,-6.078,-6.0899,-6.0711,-6.0713,-6.0715,0,-6.0049,-6.0105,-6.0234,-6.0287,-6.0314,-6.0374,-6.0437,-6.0492,-6.0541,-6.0552,-6.0595,-6.0591,-6.0668,-6.0617,-6.0724,-6.0669,-6.0703,-6.0721,-6.0725,-6.0734,-6.0675,-6.0773,-6.0936,-6.0955,-6.0741,-6.0739,-6.0738,0,-6.0138,-6.0246,-6.0337,-6.0365,-6.0429,-6.0472,-6.05,-6.0546,-6.0586,-6.0641,-6.0668,-6.073,-6.0764,-6.0812,-6.0826,-6.0786,-6.0933,-6.0882,-6.0945,-6.0945,-6.0976,-6.0974,-6.1149,-6.0997,-6.0997,-6.0996,-6.0996,0,-6.027,-6.0349,-6.0379,-6.0435,-6.0524,-6.0536,-6.0623,-6.0649,-6.0691,-6.0752,-6.0744,-6.0801,-6.0814,-6.0874,-6.0885,-6.0973,-6.0988,-6.0999,-6.1001,-6.1,-6.0999,-6.1023,-6.1016,-6.1001,-6.1,-6.0999,-6.0998,0,-6.0384,-6.0407,-6.0507,-6.056,-6.0575,-6.0639,-6.0684,-6.0738,-6.0758,-6.0835,-6.0854,-6.0884,-6.0955,-6.0973,-6.1055,-6.1063,-6.1168,-6.1161,-6.1152,-6.1152,-6.1214,-6.1209,-6.1411,-6.1439,-6.1267,-6.1269,-6.127,0,-6.0467,-6.0528,-6.059,-6.0631,-6.0662,-6.0728,-6.077,-6.0784,-6.0828,-6.0891,-6.0937,-6.1007,-6.1063,-6.1176,-6.1205,-6.1269,-6.1265,-6.1331,-6.1274,-6.1272,-6.1267,-6.1264,-6.1271,-6.1342,-6.1344,-6.1345,-6.1347,0,-6.0612,-6.0622,-6.0683,-6.075,-6.0801,-6.0854,-6.0904,-6.0938,-6.0959,-6.1009,-6.1082,-6.1126,-6.1212,-6.1282,-6.1347,-6.1375,-6.1365,-6.1365,-6.1383,-6.1383,-6.1376,-6.1382,-6.1183,-6.136,-6.1358,-6.1357,-6.1357,-6.1356,-6.0715,-6.077,-6.0822,-6.0892,-6.0932,-6.098,-6.1034,-6.1062,-6.1124,-6.1197,-6.1201,-6.1281,-6.133,-6.1417,-6.1449,-6.1511,-6.1491,-6.1516,-6.1523,-6.153,-6.1536,-6.1366,-6.1522,-6.1522,-6.1522,-6.1521,-6.1521,0,-6.0861,-6.0895,-6.0959,-6.1031,-6.1086,-6.1074,-6.113,-6.1176,-6.1247,-6.1295,-6.1352,-6.1437,-6.1505,-6.154,-6.1608,-6.1651,-6.1648,-6.1668,-6.1665,-6.1672,-6.1549,-6.1528,-6.1669,-6.1669,-6.1669,-6.1669,-6.1669,-6.1669,-6.0943,-6.1037,-6.1052,-6.1166,-6.1198,-6.1278,-6.1311,-6.1356,-6.1394,-6.149,-6.1548,-6.1571,-6.1614,-6.1686,-6.1748,-6.1756,-6.1782,-6.1805,-6.1811,-6.1696,-6.1681,-6.1666,-6.1646,-6.181,-6.181,-6.1929,-6.193,-6.1931]}]]